{"data":{"norad_id":65753,"epoch":"2026-05-24T21:42:14.330592Z","epoch_age_seconds":90119,"freshness":"FRESH","line1":"1 65753U 25216V   26144.90433253  .00020286  00000+0  69506-3 0  9994","line2":"2 65753  53.1598 338.7921 0000799  82.6428 277.4664 15.30205437 38183","mean_motion":15.30205437,"eccentricity":7.99e-5,"inclination_deg":53.1598,"raan_deg":338.7921,"arg_perigee_deg":82.6428,"mean_anomaly_deg":277.4664,"bstar":0.00069506,"rev_number":3818,"period_min":94.105011339076,"perigee_km":474.65125403215,"apogee_km":475.74641709868,"semimajor_km":6853.3358355654,"source":"CELESTRAK","updated_at":"2026-05-25T13:38:20.933524Z"}}